Weather in Vovchoiarivka

Ukraine / Luhansk Region     48°49′48″N   38°23′00″E
temp.,
°C
wind,
m/s
gust,
m/s
humid.,
%
clouds,
%
prec.,
mm/h
press.,
hPa
HPBL,
m
18 may, tue
tue1800:00+17sw51387100 0.6 1006492
03:00+15s339389 0.6 100752
06:00+15s3595100 0.4 1007271
09:00+16ssw3693100 2.2 1008409
12:00+20ssw566584 1.7 10071352
15:00+22s675290 2.2 10071914
18:00+18ssw697238 0.8 1007772
21:00+14s410855 0.9 1008224
19 may, wed
wed1900:00+13s411903 0.0 1008269
03:00+13sse4109298 0.0 1007371
06:00+14se41189100 0.4 1007572
09:00+15s6990100 1.6 1007688
12:00+13s3592100 3.8 1008316
15:00+17s797198 4.7 10081163
18:00+17s7106735 0.7 1007997
21:00+13s6118357 0.7 1008518
20 may, thu
thu2000:00+13s6128694 0.1 1008686
03:00+13sw7128337 0.2 1008767
06:00+13sw61188100 0.3 1009755
09:00+14sw7107863 0.4 1010980
12:00+17wsw71065100 0.1 10121409
15:00+21wsw7104716 0.1 10122286
18:00+19wsw4762100 0.0 1012704
21:00+16s336961 0.0 101456
21 may, fri
fri2100:00+13s337564 0.0 101346
03:00+12s1184100 0.0 101410
06:00+13nne228278 0.0 101563
09:00+18ene4566100 0.0 1014617
12:00+22e6755100 0.0 1013942
15:00+23ese575298 0.0 10121052
18:00+22e4966100 0.0 1012468
21:00+18ene338591 0.0 101251
22 may, sat
sat2200:00+16e31186100 0.0 1011211
03:00+15e39880 0.0 1010166
06:00+15ese38810 0.0 1011250
09:00+21ese5661100 0.0 1010501
12:00+25ese3453100 0.0 1010793
15:00+27se4554100 0.0 1010912
18:00+23nne2373100 0.0 101042
21:00+21e2277100 0.0 101026